Time,TemperatureF,DewpointF,PressureIn,WindDirection,WindDirectionDegrees,WindSpeedMPH,WindSpeedGustMPH,Humidity,HourlyPrecipIn,Conditions,Clouds,dailyrainin,SoftwareType,DateUTC
2013-05-13 00:01:00,33.6,23.2,30.21,NNW,338,0.0,1.5,66,0.00,,,0.00,WUHU216HW,2013-05-13 04:01:00,
2013-05-13 00:03:00,33.4,23.2,30.20,WNW,293,2.2,2.2,66,0.00,,,0.00,WUHU216HW,2013-05-13 04:03:00,
2013-05-13 00:08:00,33.2,23.4,30.20,SSW,203,0.0,2.2,67,0.00,,,0.00,WUHU216HW,2013-05-13 04:08:00,
2013-05-13 00:14:00,32.7,22.9,30.20,WNW,293,0.0,3.8,67,0.00,,,0.00,WUHU216HW,2013-05-13 04:14:00,
2013-05-13 00:19:00,32.5,22.7,30.20,NW,315,0.0,3.8,67,0.00,,,0.00,WUHU216HW,2013-05-13 04:19:00,
2013-05-13 00:24:00,32.1,22.4,30.20,NNW,338,0.0,0.0,67,0.00,,,0.00,WUHU216HW,2013-05-13 04:24:00,
2013-05-13 00:29:00,32.1,22.8,30.20,WNW,293,0.0,0.0,68,0.00,,,0.00,WUHU216HW,2013-05-13 04:29:00,
2013-05-13 00:34:00,31.8,22.4,30.20,NW,315,0.0,0.0,68,0.00,,,0.00,WUHU216HW,2013-05-13 04:34:00,
2013-05-13 00:39:00,31.6,22.6,30.20,NW,315,2.2,2.2,69,0.00,,,0.00,WUHU216HW,2013-05-13 04:39:00,
2013-05-13 00:44:00,31.6,22.6,30.20,WSW,248,7.8,7.8,69,0.00,,,0.00,WUHU216HW,2013-05-13 04:44:00,
2013-05-13 00:49:00,31.6,22.6,30.20,West,270,1.7,7.8,69,0.00,,,0.00,WUHU216HW,2013-05-13 04:49:00,
2013-05-13 00:54:00,31.2,22.2,30.20,West,270,0.0,2.2,69,0.00,,,0.00,WUHU216HW,2013-05-13 04:54:00,
2013-05-13 01:00:00,31.2,22.2,30.20,WNW,293,0.0,2.2,69,0.00,,,0.00,WUHU216HW,2013-05-13 05:00:00,
2013-05-13 01:05:00,31.1,22.4,30.20,SW,225,3.8,3.8,70,0.00,,,0.00,WUHU216HW,2013-05-13 05:05:00,
2013-05-13 01:10:00,30.7,22.1,30.20,West,270,0.0,3.8,70,0.00,,,0.00,WUHU216HW,2013-05-13 05:10:00,
2013-05-13 01:15:00,30.5,22.2,30.20,WNW,293,0.0,2.4,71,0.00,,,0.00,WUHU216HW,2013-05-13 05:15:00,
2013-05-13 01:20:00,30.3,22.0,30.20,WSW,248,0.0,0.0,71,0.00,,,0.00,WUHU216HW,2013-05-13 05:20:00,
2013-05-13 01:25:00,30.0,21.7,30.20,WNW,293,0.0,0.0,71,0.00,,,0.00,WUHU216HW,2013-05-13 05:25:00,
2013-05-13 01:30:00,30.0,22.0,30.20,WNW,293,0.0,0.0,72,0.00,,,0.00,WUHU216HW,2013-05-13 05:30:00,
2013-05-13 01:35:00,29.8,21.8,30.20,West,270,0.0,0.0,72,0.00,,,0.00,WUHU216HW,2013-05-13 05:35:00,
2013-05-13 01:40:00,29.8,21.8,30.21,West,270,0.0,0.0,72,0.00,,,0.00,WUHU216HW,2013-05-13 05:40:00,
2013-05-13 01:45:00,29.6,21.5,30.21,West,270,0.0,0.0,72,0.00,,,0.00,WUHU216HW,2013-05-13 05:45:00,
2013-05-13 01:51:00,29.4,21.5,30.21,West,270,0.0,0.0,72,0.00,,,0.00,WUHU216HW,2013-05-13 05:51:00,
2013-05-13 01:56:00,29.4,21.8,30.21,West,270,0.0,0.0,73,0.00,,,0.00,WUHU216HW,2013-05-13 05:56:00,
2013-05-13 02:01:00,29.4,21.8,30.21,West,270,0.0,0.0,73,0.00,,,0.00,WUHU216HW,2013-05-13 06:01:00,
2013-05-13 02:06:00,29.8,22.5,30.22,West,270,0.0,2.2,74,0.00,,,0.00,WUHU216HW,2013-05-13 06:06:00,
2013-05-13 02:11:00,30.0,22.6,30.21,West,270,0.0,2.2,74,0.00,,,0.00,WUHU216HW,2013-05-13 06:11:00,
2013-05-13 02:16:00,30.2,22.5,30.21,NW,315,1.5,1.5,73,0.00,,,0.00,WUHU216HW,2013-05-13 06:16:00,
2013-05-13 02:21:00,30.3,23.0,30.21,WNW,293,0.0,1.5,74,0.00,,,0.00,WUHU216HW,2013-05-13 06:21:00,
2013-05-13 02:26:00,30.5,22.8,30.21,NW,315,1.5,2.4,73,0.00,,,0.00,WUHU216HW,2013-05-13 06:26:00,
2013-05-13 02:31:00,30.7,23.0,30.21,WSW,248,0.0,2.4,73,0.00,,,0.00,WUHU216HW,2013-05-13 06:31:00,
2013-05-13 02:37:00,30.5,22.8,30.21,West,270,0.0,1.5,73,0.00,,,0.00,WUHU216HW,2013-05-13 06:37:00,
2013-05-13 02:42:00,30.3,22.7,30.21,SW,225,0.0,0.8,73,0.00,,,0.00,WUHU216HW,2013-05-13 06:42:00,
2013-05-13 02:47:00,30.0,22.3,30.21,WNW,293,0.0,0.8,73,0.00,,,0.00,WUHU216HW,2013-05-13 06:47:00,
2013-05-13 02:52:00,30.0,22.3,30.21,WSW,248,0.0,0.0,73,0.00,,,0.00,WUHU216HW,2013-05-13 06:52:00,
2013-05-13 02:57:00,29.8,22.5,30.21,West,270,0.0,2.2,74,0.00,,,0.00,WUHU216HW,2013-05-13 06:57:00,
2013-05-13 03:02:00,29.8,22.5,30.21,WSW,248,0.0,2.2,74,0.00,,,0.00,WUHU216HW,2013-05-13 07:02:00,
2013-05-13 03:07:00,29.8,22.5,30.21,West,270,0.0,0.0,74,0.00,,,0.00,WUHU216HW,2013-05-13 07:07:00,
2013-05-13 03:12:00,29.8,22.8,30.21,WSW,248,0.0,0.0,75,0.00,,,0.00,WUHU216HW,2013-05-13 07:12:00,
2013-05-13 03:17:00,30.0,23.0,30.21,SSW,203,6.7,6.7,75,0.00,,,0.00,WUHU216HW,2013-05-13 07:17:00,
2013-05-13 03:22:00,30.3,23.3,30.22,West,270,0.0,6.7,75,0.00,,,0.00,WUHU216HW,2013-05-13 07:22:00,
2013-05-13 03:28:00,30.3,23.3,30.21,West,270,0.0,4.4,75,0.00,,,0.00,WUHU216HW,2013-05-13 07:28:00,
2013-05-13 03:33:00,30.5,23.5,30.22,WNW,293,0.0,4.4,75,0.00,,,0.00,WUHU216HW,2013-05-13 07:33:00,
2013-05-13 03:38:00,30.7,23.7,30.22,West,270,6.7,6.7,75,0.00,,,0.00,WUHU216HW,2013-05-13 07:38:00,
2013-05-13 03:43:00,30.7,23.3,30.21,West,270,2.9,6.7,74,0.00,,,0.00,WUHU216HW,2013-05-13 07:43:00,
2013-05-13 03:48:00,30.9,23.5,30.21,WNW,293,0.0,6.7,74,0.00,,,0.00,WUHU216HW,2013-05-13 07:48:00,
2013-05-13 03:53:00,30.9,23.5,30.22,SSW,203,0.0,0.8,74,0.00,,,0.00,WUHU216HW,2013-05-13 07:53:00,
2013-05-13 03:58:00,30.7,23.3,30.21,WSW,248,0.0,3.5,74,0.00,,,0.00,WUHU216HW,2013-05-13 07:58:00,
2013-05-13 04:03:00,30.7,23.7,30.21,West,270,3.1,3.5,75,0.00,,,0.00,WUHU216HW,2013-05-13 08:03:00,
2013-05-13 04:08:00,30.7,23.7,30.21,WSW,248,4.2,4.2,75,0.00,,,0.00,WUHU216HW,2013-05-13 08:08:00,
2013-05-13 04:13:00,30.7,23.7,30.21,West,270,0.0,4.2,75,0.00,,,0.00,WUHU216HW,2013-05-13 08:13:00,
2013-05-13 04:19:00,30.9,23.9,30.21,WNW,293,0.0,2.0,75,0.00,,,0.00,WUHU216HW,2013-05-13 08:19:00,
2013-05-13 04:24:00,30.9,23.9,30.21,NNW,338,0.0,0.0,75,0.00,,,0.00,WUHU216HW,2013-05-13 08:24:00,
2013-05-13 04:29:00,31.1,24.0,30.21,WNW,293,1.1,1.1,75,0.00,,,0.00,WUHU216HW,2013-05-13 08:29:00,
2013-05-13 04:34:00,31.2,24.2,30.21,SW,225,5.3,5.3,75,0.00,,,0.00,WUHU216HW,2013-05-13 08:34:00,
2013-05-13 04:39:00,31.2,24.2,30.21,West,270,0.0,5.3,75,0.00,,,0.00,WUHU216HW,2013-05-13 08:39:00,
2013-05-13 04:44:00,31.6,24.6,30.20,WSW,248,9.3,9.3,75,0.00,,,0.00,WUHU216HW,2013-05-13 08:44:00,
2013-05-13 04:49:00,31.6,24.6,30.20,NW,315,0.0,9.3,75,0.00,,,0.00,WUHU216HW,2013-05-13 08:49:00,
2013-05-13 04:54:00,31.6,24.6,30.21,WNW,293,0.0,3.8,75,0.00,,,0.00,WUHU216HW,2013-05-13 08:54:00,
2013-05-13 04:59:00,31.8,24.4,30.20,West,270,1.7,1.7,74,0.00,,,0.00,WUHU216HW,2013-05-13 08:59:00,
2013-05-13 05:05:00,31.8,24.8,30.20,WNW,293,0.0,1.7,75,0.00,,,0.00,WUHU216HW,2013-05-13 09:05:00,
2013-05-13 05:10:00,31.8,24.8,30.20,West,270,0.0,2.0,75,0.00,,,0.00,WUHU216HW,2013-05-13 09:10:00,
2013-05-13 05:15:00,31.8,24.8,30.20,NW,315,0.0,5.3,75,0.00,,,0.00,WUHU216HW,2013-05-13 09:15:00,
2013-05-13 05:20:00,31.8,24.8,30.20,WNW,293,0.0,5.3,75,0.00,,,0.00,WUHU216HW,2013-05-13 09:20:00,
2013-05-13 05:25:00,31.8,24.8,30.21,West,270,0.0,2.9,75,0.00,,,0.00,WUHU216HW,2013-05-13 09:25:00,
2013-05-13 05:30:00,32.0,24.6,30.21,NNW,338,2.2,2.9,74,0.00,,,0.00,WUHU216HW,2013-05-13 09:30:00,
2013-05-13 05:35:00,32.1,24.8,30.21,West,270,0.0,2.4,74,0.00,,,0.00,WUHU216HW,2013-05-13 09:35:00,
2013-05-13 05:40:00,32.1,24.8,30.21,NNW,338,0.0,2.4,74,0.00,,,0.00,WUHU216HW,2013-05-13 09:40:00,
2013-05-13 05:45:00,32.1,24.8,30.21,West,270,0.0,0.0,74,0.00,,,0.00,WUHU216HW,2013-05-13 09:45:00,
2013-05-13 05:51:00,31.8,24.8,30.21,WNW,293,0.0,1.7,75,0.00,,,0.00,WUHU216HW,2013-05-13 09:51:00,
2013-05-13 05:56:00,31.8,24.8,30.21,West,270,0.0,1.7,75,0.00,,,0.00,WUHU216HW,2013-05-13 09:56:00,
2013-05-13 06:01:00,31.8,24.8,30.21,WNW,293,0.0,1.5,75,0.00,,,0.00,WUHU216HW,2013-05-13 10:01:00,
2013-05-13 06:06:00,31.6,24.6,30.22,West,270,0.8,1.5,75,0.00,,,0.00,WUHU216HW,2013-05-13 10:06:00,
2013-05-13 06:11:00,31.6,24.6,30.22,WNW,293,2.0,2.0,75,0.00,,,0.00,WUHU216HW,2013-05-13 10:11:00,
2013-05-13 06:16:00,31.2,24.2,30.22,WNW,293,0.0,2.0,75,0.00,,,0.00,WUHU216HW,2013-05-13 10:16:00,
2013-05-13 06:21:00,31.2,24.2,30.23,NW,315,0.0,0.0,75,0.00,,,0.00,WUHU216HW,2013-05-13 10:21:00,
2013-05-13 06:26:00,31.1,24.4,30.23,WNW,293,2.2,2.2,76,0.00,,,0.00,WUHU216HW,2013-05-13 10:26:00,
2013-05-13 06:31:00,31.1,24.4,30.22,WNW,293,0.0,2.2,76,0.00,,,0.00,WUHU216HW,2013-05-13 10:31:00,
2013-05-13 06:37:00,31.2,24.9,30.23,NW,315,0.6,2.2,77,0.00,,,0.00,WUHU216HW,2013-05-13 10:37:00,
2013-05-13 06:42:00,31.2,24.9,30.23,West,270,0.0,0.6,77,0.00,,,0.00,WUHU216HW,2013-05-13 10:42:00,
2013-05-13 06:47:00,31.6,25.2,30.23,West,270,0.0,0.0,77,0.00,,,0.00,WUHU216HW,2013-05-13 10:47:00,
2013-05-13 06:52:00,31.6,25.2,30.23,WSW,248,0.0,0.0,77,0.00,,,0.00,WUHU216HW,2013-05-13 10:52:00,
2013-05-13 06:57:00,31.8,25.1,30.23,WNW,293,0.0,0.0,76,0.00,,,0.00,WUHU216HW,2013-05-13 10:57:00,
2013-05-13 07:02:00,32.1,25.4,30.23,WNW,293,0.0,1.7,76,0.00,,,0.00,WUHU216HW,2013-05-13 11:02:00,
2013-05-13 07:07:00,32.5,25.7,30.23,WNW,293,0.0,3.1,76,0.00,,,0.00,WUHU216HW,2013-05-13 11:07:00,
2013-05-13 07:12:00,32.7,25.9,30.23,West,270,2.0,3.1,76,0.00,,,0.00,WUHU216HW,2013-05-13 11:12:00,
2013-05-13 07:17:00,32.7,25.6,30.24,SW,225,3.5,3.5,75,0.00,,,0.00,WUHU216HW,2013-05-13 11:17:00,
2013-05-13 07:23:00,33.4,26.2,30.24,WNW,293,0.0,3.5,75,0.00,,,0.00,WUHU216HW,2013-05-13 11:23:00,
2013-05-13 07:28:00,33.6,26.4,30.24,NW,315,0.0,3.5,75,0.00,,,0.00,WUHU216HW,2013-05-13 11:28:00,
2013-05-13 07:33:00,33.9,26.4,30.25,West,270,1.5,3.5,74,0.00,,,0.00,WUHU216HW,2013-05-13 11:33:00,
2013-05-13 07:38:00,34.5,26.9,30.25,NW,315,0.0,1.5,74,0.00,,,0.00,WUHU216HW,2013-05-13 11:38:00,
2013-05-13 07:43:00,34.8,27.0,30.25,WSW,248,2.9,2.9,73,0.00,,,0.00,WUHU216HW,2013-05-13 11:43:00,
2013-05-13 07:48:00,35.2,27.0,30.25,SSW,203,1.1,4.6,72,0.00,,,0.00,WUHU216HW,2013-05-13 11:48:00,
2013-05-13 07:53:00,35.4,27.2,30.25,NW,315,0.0,4.6,72,0.00,,,0.00,WUHU216HW,2013-05-13 11:53:00,
2013-05-13 07:58:00,36.3,27.7,30.25,WSW,248,1.3,1.3,72,0.00,,,0.00,WUHU216HW,2013-05-13 11:58:00,
2013-05-13 08:03:00,36.6,28.1,30.25,NW,315,0.0,1.3,71,0.00,,,0.00,WUHU216HW,2013-05-13 12:03:00,
2013-05-13 08:09:00,37.2,28.4,30.26,SW,225,0.0,2.4,70,0.00,,,0.00,WUHU216HW,2013-05-13 12:09:00,
2013-05-13 08:14:00,37.5,28.7,30.25,WNW,293,0.0,3.3,70,0.00,,,0.00,WUHU216HW,2013-05-13 12:14:00,
2013-05-13 08:19:00,37.9,28.6,30.26,NW,315,6.0,6.0,69,0.00,,,0.00,WUHU216HW,2013-05-13 12:19:00,
2013-05-13 08:24:00,38.3,29.0,30.26,NNW,338,0.0,6.0,69,0.00,,,0.00,WUHU216HW,2013-05-13 12:24:00,
2013-05-13 08:29:00,38.8,29.2,30.26,WSW,248,3.8,6.0,67,0.00,,,0.00,WUHU216HW,2013-05-13 12:29:00,
2013-05-13 08:34:00,39.3,29.2,30.26,West,270,0.0,3.8,67,0.00,,,0.00,WUHU216HW,2013-05-13 12:34:00,
2013-05-13 08:39:00,39.7,29.2,30.26,West,270,0.0,4.0,66,0.00,,,0.00,WUHU216HW,2013-05-13 12:39:00,
2013-05-13 08:44:00,40.1,29.5,30.26,WSW,248,0.0,4.0,66,0.00,,,0.00,WUHU216HW,2013-05-13 12:44:00,
2013-05-13 08:49:00,40.6,29.7,30.26,WNW,293,0.0,0.0,65,0.00,,,0.00,WUHU216HW,2013-05-13 12:49:00,
2013-05-13 08:55:00,41.3,29.6,30.26,NW,315,3.8,3.8,63,0.00,,,0.00,WUHU216HW,2013-05-13 12:55:00,
2013-05-13 09:00:00,41.5,29.8,30.26,WNW,293,0.0,3.8,63,0.00,,,0.00,WUHU216HW,2013-05-13 13:00:00,
2013-05-13 09:05:00,42.0,29.9,30.26,WNW,293,0.0,3.8,62,0.00,,,0.00,WUHU216HW,2013-05-13 13:05:00,
2013-05-13 09:10:00,43.1,30.9,30.27,NNW,338,0.0,0.0,62,0.00,,,0.00,WUHU216HW,2013-05-13 13:10:00,
2013-05-13 09:15:00,43.5,30.5,30.26,NW,315,3.5,3.5,60,0.00,,,0.00,WUHU216HW,2013-05-13 13:15:00,
2013-05-13 09:20:00,43.8,30.4,30.27,NNW,338,4.4,4.4,59,0.00,,,0.00,WUHU216HW,2013-05-13 13:20:00,
2013-05-13 09:25:00,44.2,29.9,30.27,West,270,0.0,4.9,57,0.00,,,0.00,WUHU216HW,2013-05-13 13:25:00,
2013-05-13 09:30:00,44.9,30.1,30.27,WNW,293,0.0,4.9,56,0.00,,,0.00,WUHU216HW,2013-05-13 13:30:00,
2013-05-13 09:35:00,45.3,30.0,30.27,West,270,0.0,4.6,55,0.00,,,0.00,WUHU216HW,2013-05-13 13:35:00,
2013-05-13 09:40:00,46.2,30.8,30.27,NNW,338,0.0,4.4,55,0.00,,,0.00,WUHU216HW,2013-05-13 13:40:00,
2013-05-13 09:46:00,47.1,31.0,30.27,North,0,0.6,5.3,54,0.00,,,0.00,WUHU216HW,2013-05-13 13:46:00,
2013-05-13 09:51:00,47.3,29.0,30.27,South,180,0.0,5.3,49,0.00,,,0.00,WUHU216HW,2013-05-13 13:51:00,
2013-05-13 09:56:00,48.0,30.2,30.27,NNW,338,1.7,1.7,50,0.00,,,0.00,WUHU216HW,2013-05-13 13:56:00,
2013-05-13 10:01:00,48.7,29.2,30.27,NW,315,2.4,2.9,47,0.00,,,0.00,WUHU216HW,2013-05-13 14:01:00,
2013-05-13 10:06:00,48.7,28.7,30.27,West,270,0.0,2.9,46,0.00,,,0.00,WUHU216HW,2013-05-13 14:06:00,
2013-05-13 10:11:00,49.2,28.7,30.27,WSW,248,3.5,3.5,45,0.00,,,0.00,WUHU216HW,2013-05-13 14:11:00,
2013-05-13 10:16:00,50.1,28.6,30.26,WSW,248,0.0,3.5,44,0.00,,,0.00,WUHU216HW,2013-05-13 14:16:00,
2013-05-13 10:21:00,50.7,28.9,30.27,SW,225,0.0,4.0,43,0.00,,,0.00,WUHU216HW,2013-05-13 14:21:00,
2013-05-13 10:26:00,51.6,28.0,30.27,NW,315,0.0,4.6,40,0.00,,,0.00,WUHU216HW,2013-05-13 14:26:00,
2013-05-13 10:31:00,52.3,29.8,30.27,NW,315,0.0,4.6,42,0.00,,,0.00,WUHU216HW,2013-05-13 14:31:00,
2013-05-13 10:36:00,53.2,29.5,30.27,WNW,293,0.0,0.0,40,0.00,,,0.00,WUHU216HW,2013-05-13 14:36:00,
2013-05-13 10:41:00,51.9,27.6,30.27,NW,315,5.1,10.2,39,0.00,,,0.00,WUHU216HW,2013-05-13 14:41:00,
2013-05-13 10:47:00,51.9,28.3,30.27,North,0,3.5,10.2,40,0.00,,,0.00,WUHU216HW,2013-05-13 14:47:00,
2013-05-13 10:52:00,52.8,28.5,30.27,North,0,3.8,5.1,39,0.00,,,0.00,WUHU216HW,2013-05-13 14:52:00,
2013-05-13 10:57:00,53.7,27.9,30.28,NNW,338,1.3,4.4,37,0.00,,,0.00,WUHU216HW,2013-05-13 14:57:00,
2013-05-13 11:02:00,54.1,28.2,30.27,NNE,23,4.6,4.6,37,0.00,,,0.00,WUHU216HW,2013-05-13 15:02:00,
2013-05-13 11:07:00,55.0,28.3,30.28,West,270,0.0,4.6,36,0.00,,,0.00,WUHU216HW,2013-05-13 15:07:00,
2013-05-13 11:12:00,56.1,29.3,30.28,North,0,5.5,5.5,36,0.00,,,0.00,WUHU216HW,2013-05-13 15:12:00,
2013-05-13 11:17:00,56.3,28.7,30.28,NW,315,4.4,6.7,35,0.00,,,0.00,WUHU216HW,2013-05-13 15:17:00,
2013-05-13 11:22:00,57.0,29.4,30.28,NE,45,0.0,6.7,35,0.00,,,0.00,WUHU216HW,2013-05-13 15:22:00,
2013-05-13 11:27:00,56.6,29.0,30.28,SW,225,0.0,4.4,35,0.00,,,0.00,WUHU216HW,2013-05-13 15:27:00,
2013-05-13 11:32:00,57.3,29.4,30.28,NNE,23,4.4,4.4,35,0.00,,,0.00,WUHU216HW,2013-05-13 15:32:00,
2013-05-13 11:38:00,57.7,30.0,30.28,WSW,248,0.0,4.4,35,0.00,,,0.00,WUHU216HW,2013-05-13 15:38:00,
2013-05-13 11:43:00,59.7,28.9,30.28,WNW,293,3.5,4.4,31,0.00,,,0.00,WUHU216HW,2013-05-13 15:43:00,
2013-05-13 11:48:00,60.6,29.6,30.28,North,0,0.8,3.5,31,0.00,,,0.00,WUHU216HW,2013-05-13 15:48:00,
2013-05-13 11:53:00,61.5,31.2,30.29,West,270,0.0,3.5,32,0.00,,,0.00,WUHU216HW,2013-05-13 15:53:00,
2013-05-13 11:58:00,59.3,26.9,30.29,West,270,0.0,3.1,29,0.00,,,0.00,WUHU216HW,2013-05-13 15:58:00,
2013-05-13 12:03:00,60.4,27.8,30.29,North,0,0.0,3.1,29,0.00,,,0.00,WUHU216HW,2013-05-13 16:03:00,
2013-05-13 12:08:00,58.4,27.1,30.28,WSW,248,9.3,9.3,30,0.00,,,0.00,WUHU216HW,2013-05-13 16:08:00,
2013-05-13 12:13:00,55.7,24.7,30.29,WSW,248,2.0,9.3,30,0.00,,,0.00,WUHU216HW,2013-05-13 16:13:00,
2013-05-13 12:18:00,57.0,26.6,30.28,NW,315,0.0,4.4,31,0.00,,,0.00,WUHU216HW,2013-05-13 16:18:00,
2013-05-13 12:24:00,55.9,25.6,30.29,NNW,338,0.0,2.0,31,0.00,,,0.00,WUHU216HW,2013-05-13 16:24:00,
2013-05-13 12:29:00,54.8,26.0,30.29,West,270,0.0,4.4,33,0.00,,,0.00,WUHU216HW,2013-05-13 16:29:00,
2013-05-13 12:34:00,54.3,25.6,30.29,WSW,248,2.4,4.4,33,0.00,,,0.00,WUHU216HW,2013-05-13 16:34:00,
2013-05-13 12:39:00,54.3,24.9,30.29,NNW,338,3.1,4.4,32,0.00,,,0.00,WUHU216HW,2013-05-13 16:39:00,
2013-05-13 12:44:00,55.2,25.6,30.29,WSW,248,0.0,4.4,32,0.00,,,0.00,WUHU216HW,2013-05-13 16:44:00,
2013-05-13 12:49:00,55.0,26.3,30.29,West,270,0.0,4.4,33,0.00,,,0.00,WUHU216HW,2013-05-13 16:49:00,
2013-05-13 12:54:00,54.6,25.9,30.29,SW,225,0.0,0.0,33,0.00,,,0.00,WUHU216HW,2013-05-13 16:54:00,
2013-05-13 12:59:00,54.5,25.1,30.29,WSW,248,1.7,2.4,32,0.00,,,0.00,WUHU216HW,2013-05-13 16:59:00,
2013-05-13 13:04:00,56.8,26.4,30.29,West,270,3.8,3.8,31,0.00,,,0.00,WUHU216HW,2013-05-13 17:04:00,
2013-05-13 13:10:00,56.8,26.4,30.29,West,270,2.6,3.8,31,0.00,,,0.00,WUHU216HW,2013-05-13 17:10:00,
2013-05-13 13:15:00,58.8,27.5,30.29,NNE,23,0.0,4.2,30,0.00,,,0.00,WUHU216HW,2013-05-13 17:15:00,
2013-05-13 13:20:00,58.4,25.8,30.29,WSW,248,0.0,4.2,29,0.00,,,0.00,WUHU216HW,2013-05-13 17:20:00,
2013-05-13 13:25:00,59.3,26.9,30.29,NNE,23,4.6,4.6,29,0.00,,,0.00,WUHU216HW,2013-05-13 17:25:00,
2013-05-13 13:30:00,59.5,27.1,30.29,NE,45,3.8,4.6,29,0.00,,,0.00,WUHU216HW,2013-05-13 17:30:00,
2013-05-13 13:35:00,55.0,31.1,30.30,East,90,3.8,9.1,40,0.00,,,0.00,WUHU216HW,2013-05-13 17:35:00,
2013-05-13 13:40:00,52.1,31.3,30.30,SE,135,8.7,9.1,45,0.00,,,0.00,WUHU216HW,2013-05-13 17:40:00,
2013-05-13 13:45:00,50.1,32.3,30.30,SE,135,13.8,13.8,50,0.00,,,0.00,WUHU216HW,2013-05-13 17:45:00,
2013-05-13 13:50:00,48.0,32.5,30.30,SSE,158,10.5,13.8,55,0.00,,,0.00,WUHU216HW,2013-05-13 17:50:00,
2013-05-13 13:56:00,46.5,30.7,30.31,SE,135,9.8,13.8,54,0.00,,,0.00,WUHU216HW,2013-05-13 17:56:00,
2013-05-13 14:01:00,49.8,34.2,30.30,ESE,113,12.7,14.3,55,0.00,,,0.00,WUHU216HW,2013-05-13 18:01:00,
2013-05-13 14:06:00,49.6,32.7,30.31,ESE,113,13.1,14.3,52,0.00,,,0.00,WUHU216HW,2013-05-13 18:06:00,
2013-05-13 14:11:00,48.0,31.6,30.30,ESE,113,10.2,13.1,53,0.00,,,0.00,WUHU216HW,2013-05-13 18:11:00,
2013-05-13 14:16:00,48.5,32.5,30.30,ESE,113,10.2,14.9,54,0.00,,,0.00,WUHU216HW,2013-05-13 18:16:00,
2013-05-13 14:21:00,48.0,32.0,30.31,ESE,113,12.3,14.9,54,0.00,,,0.00,WUHU216HW,2013-05-13 18:21:00,
2013-05-13 14:26:00,47.8,32.8,30.30,ENE,68,11.8,12.3,56,0.00,,,0.00,WUHU216HW,2013-05-13 18:26:00,
2013-05-13 14:31:00,48.7,33.6,30.31,ESE,113,11.1,11.8,56,0.00,,,0.00,WUHU216HW,2013-05-13 18:31:00,
2013-05-13 14:37:00,49.2,33.2,30.30,ESE,113,10.5,11.8,54,0.00,,,0.00,WUHU216HW,2013-05-13 18:37:00,
2013-05-13 14:42:00,49.6,33.1,30.31,East,90,10.5,11.8,53,0.00,,,0.00,WUHU216HW,2013-05-13 18:42:00,
2013-05-13 14:47:00,50.3,34.3,30.31,ESE,113,12.0,12.0,54,0.00,,,0.00,WUHU216HW,2013-05-13 18:47:00,
2013-05-13 14:52:00,51.6,35.8,30.31,ESE,113,11.4,13.1,55,0.00,,,0.00,WUHU216HW,2013-05-13 18:52:00,
2013-05-13 14:57:00,49.2,33.2,30.31,ESE,113,10.0,13.1,54,0.00,,,0.00,WUHU216HW,2013-05-13 18:57:00,
2013-05-13 15:02:00,49.2,34.1,30.31,ESE,113,11.8,12.7,56,0.00,,,0.00,WUHU216HW,2013-05-13 19:02:00,
2013-05-13 15:07:00,50.7,35.0,30.31,SE,135,10.7,11.8,55,0.00,,,0.00,WUHU216HW,2013-05-13 19:07:00,
2013-05-13 15:12:00,53.0,35.8,30.31,SE,135,11.1,11.8,52,0.00,,,0.00,WUHU216HW,2013-05-13 19:12:00,
2013-05-13 15:17:00,55.2,34.6,30.31,ESE,113,11.4,11.8,46,0.00,,,0.00,WUHU216HW,2013-05-13 19:17:00,
2013-05-13 15:23:00,54.3,33.8,30.31,SE,135,10.5,11.8,46,0.00,,,0.00,WUHU216HW,2013-05-13 19:23:00,
2013-05-13 15:28:00,53.0,33.8,30.30,ESE,113,11.4,11.4,48,0.00,,,0.00,WUHU216HW,2013-05-13 19:28:00,
2013-05-13 15:33:00,52.1,34.7,30.31,SE,135,10.9,11.4,50,0.00,,,0.00,WUHU216HW,2013-05-13 19:33:00,
2013-05-13 15:38:00,54.3,33.2,30.31,ESE,113,10.7,11.8,45,0.00,,,0.00,WUHU216HW,2013-05-13 19:38:00,
2013-05-13 15:43:00,53.2,32.8,30.30,ESE,113,11.1,11.8,46,0.00,,,0.00,WUHU216HW,2013-05-13 19:43:00,
2013-05-13 15:48:00,53.9,33.5,30.30,East,90,9.1,11.8,46,0.00,,,0.00,WUHU216HW,2013-05-13 19:48:00,
2013-05-13 15:53:00,53.4,33.5,30.30,East,90,11.4,11.8,47,0.00,,,0.00,WUHU216HW,2013-05-13 19:53:00,
2013-05-13 15:58:00,53.4,32.4,30.30,ESE,113,11.4,11.8,45,0.00,,,0.00,WUHU216HW,2013-05-13 19:58:00,
2013-05-13 16:03:00,51.8,31.5,30.30,ENE,68,7.6,11.4,46,0.00,,,0.00,WUHU216HW,2013-05-13 20:03:00,
2013-05-13 16:09:00,51.9,32.2,30.29,ENE,68,10.2,11.8,47,0.00,,,0.00,WUHU216HW,2013-05-13 20:09:00,
2013-05-13 16:14:00,53.4,33.0,30.29,ESE,113,10.0,11.8,46,0.00,,,0.00,WUHU216HW,2013-05-13 20:14:00,
2013-05-13 16:19:00,53.4,32.4,30.29,ESE,113,8.2,11.6,45,0.00,,,0.00,WUHU216HW,2013-05-13 20:19:00,
2013-05-13 16:24:00,53.7,32.7,30.29,ESE,113,10.7,11.8,45,0.00,,,0.00,WUHU216HW,2013-05-13 20:24:00,
2013-05-13 16:29:00,54.1,33.1,30.29,ESE,113,9.6,11.8,45,0.00,,,0.00,WUHU216HW,2013-05-13 20:29:00,
2013-05-13 16:34:00,53.7,33.3,30.29,ESE,113,10.2,11.4,46,0.00,,,0.00,WUHU216HW,2013-05-13 20:34:00,
2013-05-13 16:39:00,53.9,33.5,30.29,ESE,113,8.5,10.5,46,0.00,,,0.00,WUHU216HW,2013-05-13 20:39:00,
2013-05-13 16:44:00,54.1,33.1,30.29,ESE,113,10.7,10.7,45,0.00,,,0.00,WUHU216HW,2013-05-13 20:44:00,
2013-05-13 16:49:00,53.6,32.6,30.28,East,90,8.2,10.7,45,0.00,,,0.00,WUHU216HW,2013-05-13 20:49:00,
2013-05-13 16:55:00,51.6,31.9,30.28,ESE,113,10.0,10.0,47,0.00,,,0.00,WUHU216HW,2013-05-13 20:55:00,
2013-05-13 17:00:00,50.3,32.9,30.29,ESE,113,10.5,10.5,51,0.00,,,0.00,WUHU216HW,2013-05-13 21:00:00,
2013-05-13 17:05:00,48.9,31.5,30.28,ESE,113,10.7,10.9,51,0.00,,,0.00,WUHU216HW,2013-05-13 21:05:00,
2013-05-13 17:10:00,48.7,31.8,30.29,ESE,113,10.2,10.9,52,0.00,,,0.00,WUHU216HW,2013-05-13 21:10:00,
2013-05-13 17:15:00,50.1,33.2,30.29,ESE,113,7.3,10.7,52,0.00,,,0.00,WUHU216HW,2013-05-13 21:15:00,
2013-05-13 17:20:00,48.9,31.1,30.29,ESE,113,8.0,10.7,50,0.00,,,0.00,WUHU216HW,2013-05-13 21:20:00,
2013-05-13 17:25:00,48.0,31.1,30.28,ENE,68,9.3,10.7,52,0.00,,,0.00,WUHU216HW,2013-05-13 21:25:00,
2013-05-13 17:30:00,49.8,32.9,30.28,ESE,113,8.9,9.6,52,0.00,,,0.00,WUHU216HW,2013-05-13 21:30:00,
2013-05-13 17:35:00,50.5,33.5,30.28,ESE,113,9.1,9.6,52,0.00,,,0.00,WUHU216HW,2013-05-13 21:35:00,
2013-05-13 17:41:00,50.9,32.9,30.28,ESE,113,9.1,9.6,50,0.00,,,0.00,WUHU216HW,2013-05-13 21:41:00,
2013-05-13 17:46:00,51.8,33.2,30.28,SE,135,6.2,9.1,49,0.00,,,0.00,WUHU216HW,2013-05-13 21:46:00,
2013-05-13 17:51:00,51.6,32.5,30.28,East,90,6.0,8.2,48,0.00,,,0.00,WUHU216HW,2013-05-13 21:51:00,
2013-05-13 17:56:00,51.6,33.6,30.28,East,90,7.6,8.0,50,0.00,,,0.00,WUHU216HW,2013-05-13 21:56:00,
2013-05-13 18:01:00,50.1,32.3,30.28,ESE,113,8.0,8.0,50,0.00,,,0.00,WUHU216HW,2013-05-13 22:01:00,
2013-05-13 18:06:00,49.8,32.9,30.28,East,90,5.8,8.0,52,0.00,,,0.00,WUHU216HW,2013-05-13 22:06:00,
2013-05-13 18:11:00,49.2,32.3,30.28,ENE,68,7.6,9.1,52,0.00,,,0.00,WUHU216HW,2013-05-13 22:11:00,
2013-05-13 18:16:00,48.0,31.6,30.29,East,90,6.4,9.1,53,0.00,,,0.00,WUHU216HW,2013-05-13 22:16:00,
2013-05-13 18:21:00,47.6,31.6,30.29,ENE,68,6.0,8.9,55,0.00,,,0.00,WUHU216HW,2013-05-13 22:21:00,
2013-05-13 18:26:00,46.9,31.9,30.29,ESE,113,6.7,8.9,56,0.00,,,0.00,WUHU216HW,2013-05-13 22:26:00,
2013-05-13 18:31:00,47.1,32.5,30.29,ESE,113,5.8,8.5,57,0.00,,,0.00,WUHU216HW,2013-05-13 22:31:00,
2013-05-13 18:37:00,47.1,32.1,30.28,SE,135,8.9,8.9,56,0.00,,,0.00,WUHU216HW,2013-05-13 22:37:00,
2013-05-13 18:42:00,46.2,31.2,30.28,ESE,113,10.2,10.2,56,0.00,,,0.00,WUHU216HW,2013-05-13 22:42:00,
2013-05-13 18:47:00,45.1,30.3,30.28,ENE,68,9.1,10.2,56,0.00,,,0.00,WUHU216HW,2013-05-13 22:47:00,
2013-05-13 18:52:00,44.2,30.4,30.28,East,90,7.3,10.2,58,0.00,,,0.00,WUHU216HW,2013-05-13 22:52:00,
2013-05-13 18:57:00,43.7,30.7,30.28,SE,135,10.5,10.5,60,0.00,,,0.00,WUHU216HW,2013-05-13 22:57:00,
2013-05-13 19:02:00,43.8,31.2,30.28,ESE,113,9.6,10.5,61,0.00,,,0.00,WUHU216HW,2013-05-13 23:02:00,
2013-05-13 19:07:00,43.8,31.6,30.28,SE,135,9.1,9.8,62,0.00,,,0.00,WUHU216HW,2013-05-13 23:07:00,
2013-05-13 19:12:00,43.8,31.6,30.28,ESE,113,10.0,10.0,62,0.00,,,0.00,WUHU216HW,2013-05-13 23:12:00,
2013-05-13 19:17:00,43.3,31.5,30.28,ESE,113,8.7,10.0,63,0.00,,,0.00,WUHU216HW,2013-05-13 23:17:00,
2013-05-13 19:22:00,43.3,31.5,30.28,ESE,113,10.0,11.8,63,0.00,,,0.00,WUHU216HW,2013-05-13 23:22:00,
2013-05-13 19:28:00,43.1,32.1,30.28,SE,135,14.5,14.5,65,0.00,,,0.00,WUHU216HW,2013-05-13 23:28:00,
2013-05-13 19:33:00,42.9,32.7,30.28,SE,135,9.8,15.2,67,0.00,,,0.00,WUHU216HW,2013-05-13 23:33:00,
2013-05-13 19:38:00,42.6,33.2,30.28,SE,135,12.5,15.2,69,0.00,,,0.00,WUHU216HW,2013-05-13 23:38:00,
2013-05-13 19:43:00,42.4,33.4,30.27,SE,135,14.5,14.5,70,0.00,,,0.00,WUHU216HW,2013-05-13 23:43:00,
2013-05-13 19:48:00,41.7,33.3,30.27,SE,135,8.7,14.5,72,0.00,,,0.00,WUHU216HW,2013-05-13 23:48:00,
2013-05-13 19:53:00,41.5,33.8,30.28,SE,135,15.6,15.6,75,0.00,,,0.00,WUHU216HW,2013-05-13 23:53:00,
2013-05-13 19:58:00,41.1,33.8,30.27,SE,135,18.1,18.1,75,0.00,,,0.00,WUHU216HW,2013-05-13 23:58:00,
2013-05-13 20:03:00,41.1,34.4,30.27,SE,135,16.3,18.1,77,0.00,,,0.00,WUHU216HW,2013-05-14 00:03:00,
2013-05-13 20:08:00,41.0,34.4,30.27,SE,135,15.2,18.1,77,0.00,,,0.00,WUHU216HW,2013-05-14 00:08:00,
2013-05-13 20:14:00,40.8,34.7,30.27,SE,135,10.7,16.5,79,0.00,,,0.00,WUHU216HW,2013-05-14 00:14:00,
2013-05-13 20:19:00,40.8,34.4,30.27,SE,135,13.1,15.2,78,0.00,,,0.00,WUHU216HW,2013-05-14 00:19:00,
2013-05-13 20:24:00,40.8,34.7,30.27,SE,135,13.1,16.3,79,0.00,,,0.00,WUHU216HW,2013-05-14 00:24:00,
2013-05-13 20:29:00,40.6,34.5,30.27,SE,135,17.2,17.2,79,0.00,,,0.00,WUHU216HW,2013-05-14 00:29:00,
2013-05-13 20:34:00,40.8,34.7,30.27,SE,135,14.7,17.2,79,0.00,,,0.00,WUHU216HW,2013-05-14 00:34:00,
2013-05-13 20:39:00,40.8,34.4,30.26,SE,135,16.5,16.5,78,0.00,,,0.00,WUHU216HW,2013-05-14 00:39:00,
2013-05-13 20:44:00,40.8,34.7,30.26,SE,135,14.0,16.5,79,0.00,,,0.00,WUHU216HW,2013-05-14 00:44:00,
2013-05-13 20:49:00,40.8,35.0,30.25,SE,135,10.0,16.5,80,0.00,,,0.00,WUHU216HW,2013-05-14 00:49:00,
2013-05-13 20:54:00,40.8,35.0,30.25,SE,135,15.8,15.8,80,0.00,,,0.00,WUHU216HW,2013-05-14 00:54:00,
2013-05-13 21:00:00,40.8,35.0,30.26,SSE,158,17.2,17.2,80,0.00,,,0.00,WUHU216HW,2013-05-14 01:00:00,
2013-05-13 21:05:00,40.8,35.0,30.25,SE,135,12.9,17.2,80,0.00,,,0.00,WUHU216HW,2013-05-14 01:05:00,
2013-05-13 21:10:00,40.6,35.2,30.25,SE,135,11.8,14.3,81,0.00,,,0.00,WUHU216HW,2013-05-14 01:10:00,
2013-05-13 21:15:00,40.6,35.2,30.26,SSE,158,11.8,14.3,81,0.00,,,0.00,WUHU216HW,2013-05-14 01:15:00,
2013-05-13 21:20:00,40.8,35.3,30.26,SE,135,10.5,14.3,81,0.00,,,0.00,WUHU216HW,2013-05-14 01:20:00,
2013-05-13 21:25:00,41.0,35.5,30.25,SE,135,12.5,17.0,81,0.00,,,0.00,WUHU216HW,2013-05-14 01:25:00,
2013-05-13 21:30:00,40.8,35.6,30.25,SE,135,10.7,17.0,82,0.00,,,0.00,WUHU216HW,2013-05-14 01:30:00,
2013-05-13 21:35:00,40.8,35.9,30.25,SE,135,13.1,13.1,83,0.00,,,0.00,WUHU216HW,2013-05-14 01:35:00,
2013-05-13 21:40:00,40.8,35.9,30.26,SSE,158,7.1,13.1,83,0.00,,,0.00,WUHU216HW,2013-05-14 01:40:00,
2013-05-13 21:45:00,40.8,35.9,30.26,SE,135,12.0,13.6,83,0.00,,,0.00,WUHU216HW,2013-05-14 01:45:00,
2013-05-13 21:51:00,40.8,35.9,30.25,SSE,158,10.5,13.6,83,0.00,,,0.00,WUHU216HW,2013-05-14 01:51:00,
2013-05-13 21:56:00,40.8,36.2,30.25,SSE,158,10.2,12.0,84,0.00,,,0.00,WUHU216HW,2013-05-14 01:56:00,
2013-05-13 22:01:00,41.0,36.7,30.25,SSE,158,9.6,11.6,85,0.00,,,0.00,WUHU216HW,2013-05-14 02:01:00,
2013-05-13 22:06:00,41.1,36.6,30.25,SSE,158,9.6,11.4,84,0.00,,,0.00,WUHU216HW,2013-05-14 02:06:00,
2013-05-13 22:11:00,41.1,36.6,30.25,SSE,158,9.1,9.6,84,0.00,,,0.00,WUHU216HW,2013-05-14 02:11:00,
2013-05-13 22:16:00,41.3,36.8,30.25,SSE,158,9.1,10.5,84,0.00,,,0.00,WUHU216HW,2013-05-14 02:16:00,
2013-05-13 22:21:00,41.3,36.8,30.26,SE,135,8.9,10.5,84,0.00,,,0.00,WUHU216HW,2013-05-14 02:21:00,
2013-05-13 22:26:00,41.5,37.3,30.25,SSE,158,5.1,9.1,85,0.00,,,0.00,WUHU216HW,2013-05-14 02:26:00,
2013-05-13 22:31:00,41.5,37.3,30.25,SSE,158,7.1,8.9,85,0.00,,,0.00,WUHU216HW,2013-05-14 02:31:00,
2013-05-13 22:36:00,41.7,37.4,30.26,SSE,158,5.5,8.7,85,0.00,,,0.00,WUHU216HW,2013-05-14 02:36:00,
2013-05-13 22:42:00,41.1,36.3,30.26,South,180,0.0,8.0,83,0.00,,,0.00,WUHU216HW,2013-05-14 02:42:00,
2013-05-13 22:47:00,40.6,35.8,30.26,SW,225,0.0,5.5,83,0.00,,,0.00,WUHU216HW,2013-05-14 02:47:00,
2013-05-13 22:52:00,39.9,35.1,30.26,West,270,0.0,0.8,83,0.00,,,0.00,WUHU216HW,2013-05-14 02:52:00,
2013-05-13 22:57:00,39.5,34.8,30.26,WSW,248,0.0,0.0,83,0.00,,,0.00,WUHU216HW,2013-05-14 02:57:00,
2013-05-13 23:02:00,39.3,34.6,30.25,WSW,248,0.0,0.0,83,0.00,,,0.00,WUHU216HW,2013-05-14 03:02:00,
2013-05-13 23:07:00,38.8,34.4,30.25,WSW,248,0.0,1.5,84,0.00,,,0.00,WUHU216HW,2013-05-14 03:07:00,
2013-05-13 23:12:00,38.4,34.0,30.25,SSW,203,1.3,1.5,84,0.00,,,0.00,WUHU216HW,2013-05-14 03:12:00,
2013-05-13 23:17:00,38.1,33.6,30.25,WSW,248,1.3,1.3,84,0.00,,,0.00,WUHU216HW,2013-05-14 03:17:00,
2013-05-13 23:22:00,37.9,33.8,30.25,SW,225,0.0,1.3,85,0.00,,,0.00,WUHU216HW,2013-05-14 03:22:00,
2013-05-13 23:28:00,37.7,33.6,30.25,West,270,0.0,1.3,85,0.00,,,0.00,WUHU216HW,2013-05-14 03:28:00,
2013-05-13 23:33:00,37.2,33.0,30.25,West,270,0.0,0.0,85,0.00,,,0.00,WUHU216HW,2013-05-14 03:33:00,
2013-05-13 23:38:00,36.8,32.7,30.25,West,270,0.0,0.0,85,0.00,,,0.00,WUHU216HW,2013-05-14 03:38:00,
2013-05-13 23:43:00,36.3,32.1,30.25,West,270,0.0,0.0,85,0.00,,,0.00,WUHU216HW,2013-05-14 03:43:00,
2013-05-13 23:48:00,36.1,32.2,30.25,West,270,0.0,0.0,86,0.00,,,0.00,WUHU216HW,2013-05-14 03:48:00,
2013-05-13 23:53:00,35.7,31.9,30.25,WNW,293,0.0,0.0,86,0.00,,,0.00,WUHU216HW,2013-05-14 03:53:00,
2013-05-13 23:58:00,35.4,31.5,30.25,West,270,0.0,0.0,86,0.00,,,0.00,WUHU216HW,2013-05-14 03:58:00,